Regional Weather Roundup
Issued by NWS Midland/Odessa, TX

Skip options and go directly to product.
Home | Oldest Version | Previous Version | Current Version | All | Text Only | Save Text | Print | Product List | Glossary Off

Skip product version selection by date and time.   

803
ASUS44 KMAF 300810
RWRMAF
MIDLAND AREA WEATHER ROUNDUP
NATIONAL WEATHER SERVICE MIDLAND TX
300 AM CDT THU MAR 30 2017

...IN SOUTHWEST TEXAS AND SOUTHEAST NEW MEXICO...

CITY           SKY/WX    TMP DP  RH WIND       PRES   REMARKS
ALPINE         CLEAR     39  30  70 S7        30.15S WCI  34
ANDREWS        FAIR      42  35  75 W8        30.02F WCI  37
ARTESIA        CLEAR     37  34  87 SW5       30.01F WCI  34
BIG SPRING     CLEAR     44  40  86 W3        30.02S
CARLSBAD       CLEAR     43  34  70 S5        30.01F
DRYDEN           N/A     51  35  54 W8        30.04S
FORT STOCKTON  CLEAR     45  34  65 SW10      30.05F WCI  40
GUAD PASS      CLEAR     44  31  60 W22       30.08F WCI  35
HOBBS          NOT AVBL
MARFA          CLEAR     36  26  67 NW5       30.12S WCI  32
MIDLAND AIRPK  CLEAR     46  38  74 W3        30.02S
MIDLAND INTL   CLEAR     44  37  76 W5        30.01F
ODESSA           N/A     43  35  73 W6        30.02F WCI  39
PECOS          CLEAR     41  31  65 CALM      30.04F
PRESIDIO       FAIR      53  32  45 SE3       30.09S
SEMINOLE       CLEAR     40  34  79 W8        30.01F WCI  35
SNYDER         PTCLDY    46  41  84 W8        29.97F
WINK           CLEAR     42  35  76 W5        30.01F WCI  39
$$
...OTHER STATIONS IN TEXAS...

CITY           SKY/WX    TMP DP  RH WIND       PRES   REMARKS
ABILENE        PTCLDY    48  43  82 W12       29.94F
AMARILLO       CLEAR     42  37  82 W13       29.93F WCI  35
AUSTIN         PTCLDY    60  49  66 NW14G21   29.91R
BROWNSVILLE    CLOUDY    74  73  97 CALM      29.82F
CORPUS CHRISTI PTCLDY    68  59  73 NW15      29.87R
DALLAS FTW     PTCLDY    56  44  64 W15       29.84R
DEL RIO        CLEAR     59  43  55 NW12      30.01F
EL PASO        CLEAR     52  31  44 S7        30.06F
HOUSTON INT    CLOUDY    64  59  83 NW14G24   29.82R
LUBBOCK        CLEAR     42  39  89 W9        29.95F WCI  37
SAN ANGELO     CLEAR     46  40  79 W8        29.99S
SAN ANTONIO    MOCLDY    58  44  60 N12G18    29.94R
WACO           PTCLDY    54  49  83 W8        29.89S
WICHITA FALLS  NOT AVBL
$$
...OTHER LOCATIONS IN NEW MEXICO...

CITY           SKY/WX    TMP DP  RH WIND       PRES   REMARKS
ALAMAGORDO       N/A    N/A N/A N/A MISG        N/A
ALBUQUERQUE    CLEAR     45  38  76 E5        30.06F
CANNON AFB     CLEAR     43  43  99 W9        29.98F WCI  38
CLOVIS         CLEAR     39  34  81 W10       29.98F WCI  32
HOLLOMAN AFB   CLEAR     45  40  83 CALM      30.10F
ROSWELL        CLEAR     42  38  85 SW9         N/A  WCI  37
RUIDOSO        CLEAR     36  32  87 W8        30.10S WCI  29
SANTA FE       CLEAR     35  34  96 CALM      30.05F
TRUTH OR CONSE CLEAR     42  36  79 W9        30.07F WCI  37
TUCUMCARI      CLEAR     40  37  89 CALM      29.94F
$$

  • National Weather Service
  • Southern Region Headquarters
  • 819 Taylor Street, Room 10A06
  • Fort Worth, TX 76102
  • Page Author: NWS Fort Worth
  • Web Master: SR-SRH.Webmaster@noaa.gov
  •  
  • Page last modified: 30-Sep-2016 6:36 PM UTC
USA.gov is the U.S. government's official web portal to all federal, state and local government web resources and services.